Time,TemperatureF,DewpointF,PressureIn,WindDirection,WindDirectionDegrees,WindSpeedMPH,WindSpeedGustMPH,Humidity,HourlyPrecipIn,Conditions,Clouds,dailyrainin,SoftwareType,DateUTC
2013-05-04 00:00:00,44.0,-99.9,-100.00,SW,214,2.0,-999.0,-999,-99.99,,,-99.99,,2013-05-04 07:00:00,
2013-05-04 01:00:00,41.0,-99.9,-100.00,South,183,2.0,-999.0,-999,-99.99,,,-99.99,,2013-05-04 08:00:00,
2013-05-04 02:00:00,38.0,-99.9,-100.00,South,180,1.0,-999.0,-999,-99.99,,,-99.99,,2013-05-04 09:00:00,
2013-05-04 03:00:00,36.0,-99.9,-100.00,South,191,2.0,-999.0,-999,-99.99,,,-99.99,,2013-05-04 10:00:00,
2013-05-04 04:00:00,35.0,-99.9,-100.00,South,169,2.0,-999.0,-999,-99.99,,,-99.99,,2013-05-04 11:00:00,
2013-05-04 05:00:00,34.0,-99.9,-100.00,South,180,1.0,-999.0,-999,-99.99,,,-99.99,,2013-05-04 12:00:00,
2013-05-04 06:00:00,33.0,-99.9,-100.00,South,174,1.0,-999.0,-999,-99.99,,,-99.99,,2013-05-04 13:00:00,
2013-05-04 07:00:00,35.0,-99.9,-100.00,South,181,1.0,-999.0,-999,-99.99,,,-99.99,,2013-05-04 14:00:00,
2013-05-04 09:00:00,54.0,-99.9,-100.00,NNW,331,7.0,-999.0,-999,-99.99,,,-99.99,,2013-05-04 16:00:00,
2013-05-04 10:00:00,56.0,-99.9,-100.00,NW,324,7.0,-999.0,-999,-99.99,,,-99.99,,2013-05-04 17:00:00,
2013-05-04 11:00:00,60.0,-99.9,-100.00,NNW,345,8.0,-999.0,-999,-99.99,,,-99.99,,2013-05-04 18:00:00,
2013-05-04 12:00:00,62.0,-99.9,-100.00,North,357,10.0,-999.0,-999,-99.99,,,-99.99,,2013-05-04 19:00:00,
2013-05-04 13:00:00,64.0,-99.9,-100.00,NNE,28,13.0,-999.0,-999,-99.99,,,-99.99,,2013-05-04 20:00:00,
2013-05-04 14:00:00,64.0,-99.9,-100.00,North,10,12.0,-999.0,-999,-99.99,,,-99.99,,2013-05-04 21:00:00,
2013-05-04 15:00:00,65.0,-99.9,-100.00,NNE,13,10.0,-999.0,-999,-99.99,,,-99.99,,2013-05-04 22:00:00,
2013-05-04 16:00:00,64.0,-99.9,-100.00,NNE,18,10.0,-999.0,-999,-99.99,,,-99.99,,2013-05-04 23:00:00,
2013-05-04 17:00:00,65.0,-99.9,-100.00,NNE,28,12.0,-999.0,-999,-99.99,,,-99.99,,2013-05-05 00:00:00,
2013-05-04 18:00:00,66.0,-99.9,-100.00,NNE,16,12.0,-999.0,-999,-99.99,,,-99.99,,2013-05-05 01:00:00,
2013-05-04 19:00:00,63.0,-99.9,-100.00,NNE,21,13.0,-999.0,-999,-99.99,,,-99.99,,2013-05-05 02:00:00,
2013-05-04 20:00:00,61.0,-99.9,-100.00,NNE,24,12.0,-999.0,-999,-99.99,,,-99.99,,2013-05-05 03:00:00,
2013-05-04 21:00:00,58.0,-99.9,-100.00,NNE,23,9.0,-999.0,-999,-99.99,,,-99.99,,2013-05-05 04:00:00,
2013-05-04 22:00:00,55.0,-99.9,-100.00,NNE,16,6.0,-999.0,-999,-99.99,,,-99.99,,2013-05-05 05:00:00,
2013-05-04 23:00:00,51.0,-99.9,-100.00,NNW,342,2.0,-999.0,-999,-99.99,,,-99.99,,2013-05-05 06:00:00,